This is the latest recevied weather packets stored in our database for station/object KN6DHD. If no packets are shown the sender has not sent any weather packets the latest 10 day(s).
| Time | Temp. | Humidity | Pressure | Rain* | Wind** | Luminosity | Snow |
|---|---|---|---|---|---|---|---|
| 1777864800 | 16.11° C | 73% | 1013.4 hPa | 0 mm | - | 0 W/m² | - |
| 1777864497 | 16.11° C | 73% | 1013.2 hPa | 0 mm | - | 0 W/m² | - |
| 1777864194 | 16.67° C | 72% | 1013.3 hPa | 0 mm | - | 0 W/m² | - |
| 1777863891 | 16.67° C | 72% | 1013.1 hPa | 0 mm | - | 0 W/m² | - |
| 1777863587 | 16.67° C | 71% | 1012.9 hPa | 0 mm | - | 0 W/m² | - |
| 1777863284 | 16.67° C | 70% | 1012.9 hPa | 0 mm | - | 3 W/m² | - |
| 1777862981 | 16.67° C | 69% | 1012.7 hPa | 0 mm | - | 5 W/m² | - |
| 1777862678 | 17.22° C | 69% | 1012.9 hPa | 0 mm | - | 9 W/m² | - |
| 1777862375 | 17.22° C | 68% | 1012.8 hPa | 0 mm | - | 14 W/m² | - |
| 1777862071 | 17.78° C | 67% | 1012.8 hPa | 0 mm | - | 21 W/m² | - |
| 1777861767 | 17.78° C | 66% | 1012.4 hPa | 0 mm | - | 26 W/m² | - |
| 1777861464 | 17.78° C | 65% | 1012.7 hPa | 0 mm | - | 29 W/m² | - |
| 1777861160 | 17.78° C | 63% | 1012.5 hPa | 0 mm | - | 35 W/m² | - |
| 1777860857 | 18.33° C | 63% | 1012.4 hPa | 0 mm | - | 40 W/m² | - |
| 1777860555 | 18.33° C | 63% | 1012.4 hPa | 0 mm | - | 42 W/m² | - |
| 1777860251 | 18.33° C | 63% | 1012.4 hPa | 0 mm | - | 43 W/m² | - |
| 1777859948 | 18.33° C | 62% | 1012.4 hPa | 0 mm | - | 53 W/m² | - |
| 1777859644 | 18.33° C | 61% | 1012.3 hPa | 0 mm | - | 54 W/m² | - |
| 1777859340 | 18.33° C | 61% | 1012.3 hPa | 0 mm | - | 49 W/m² | - |
| 1777859036 | 18.33° C | 62% | 1012.1 hPa | 0 mm | - | 44 W/m² | - |
| 1777858733 | 18.89° C | 61% | 1012.1 hPa | 0 mm | - | 46 W/m² | - |
| 1777858431 | 18.89° C | 60% | 1012.1 hPa | 0 mm | - | 52 W/m² | - |
| 1777858128 | 18.89° C | 61% | 1012.3 hPa | 0 mm | - | 61 W/m² | - |
| 1777857826 | 18.89° C | 61% | 1012.4 hPa | 0 mm | - | 66 W/m² | - |
| 1777857523 | 18.89° C | 62% | 1012.3 hPa | 0 mm | - | 64 W/m² | - |
* Rain latest hour (hover to see other rain measurements)
** Current wind speed in m/s (hover to see current wind gust speed)